UAE48 EDDF-OMDB

Flight info

Callsign UAE48
Flight time N/A
Altitude 37000
Route CINDY8S/18 CINDY Z74 LAMPU DCT NOMBO Y161 MAH DCT VAVOR DCT RADIZ/N0487F390 DCT NIPEL DCT ELTIB DCT GLOMY DCT LMO DCT RIKSO DCT YOYYO/N0482F410 UG80 BANRO DCT VANZA DCT LAKTO L560 SILKA M872 BDB Y214 RAPMA DCT KUVSO DCT KATIT DCT PEKEM M628 RIGIL G783 ELUDA/N0506F350 G783 ASPED Q308 KIPOK Q568 IMPED
Aircraft A359/H-SDE2E3GHIJ3J4J5LM1ORWXY/LB1D1

Departure

Time 2026-05-07 10:47
Airport Frankfurt Main Airport (EDDF)

Arrival

Time N/A
Airport Dubai International Airport (OMDB)
Time Latitude Longitude Altitude Speed Heading
2026-05-07 10:02 50.04691 8.56687 370 ft 0 kts 116°
2026-05-07 10:04 50.04692 8.56685 371 ft 0 kts 116°
2026-05-07 10:25 50.04699 8.56664 373 ft 2 kts 122°
2026-05-07 10:25 50.04709 8.56643 372 ft 2 kts 132°
2026-05-07 10:26 50.04721 8.56627 370 ft 2 kts 161°
2026-05-07 10:26 50.04738 8.56626 372 ft 2 kts 208°
2026-05-07 10:26 50.04747 8.56637 370 ft 1 kts 226°
2026-05-07 10:26 50.04748 8.56638 370 ft 0 kts 226°
2026-05-07 10:35 50.04748 8.56637 370 ft 1 kts 228°
2026-05-07 10:35 50.04733 8.56611 373 ft 5 kts 230°
2026-05-07 10:35 50.04704 8.56555 373 ft 8 kts 232°
2026-05-07 10:35 50.04677 8.56477 371 ft 9 kts 247°
2026-05-07 10:36 50.04653 8.56377 374 ft 11 kts 250°
2026-05-07 10:36 50.04626 8.56256 373 ft 13 kts 250°
2026-05-07 10:36 50.04593 8.56126 373 ft 12 kts 249°
2026-05-07 10:36 50.04571 8.56036 375 ft 8 kts 250°
2026-05-07 10:37 50.04538 8.55971 372 ft 8 kts 213°
2026-05-07 10:37 50.04502 8.55943 375 ft 9 kts 201°
2026-05-07 10:37 50.04406 8.55909 374 ft 12 kts 186°
2026-05-07 10:37 50.04322 8.55926 373 ft 12 kts 158°
2026-05-07 10:38 50.04270 8.55942 369 ft 6 kts 189°
2026-05-07 10:38 50.04269 8.55942 369 ft 0 kts 189°
2026-05-07 10:39 50.04260 8.55940 369 ft 4 kts 189°
2026-05-07 10:39 50.04224 8.55899 374 ft 9 kts 230°
2026-05-07 10:39 50.04195 8.55785 374 ft 14 kts 256°
2026-05-07 10:40 50.04160 8.55612 376 ft 19 kts 250°
2026-05-07 10:40 50.04111 8.55392 375 ft 22 kts 249°
2026-05-07 10:40 50.04100 8.55348 373 ft 0 kts 250°
2026-05-07 10:40 50.04099 8.55346 373 ft 2 kts 250°
2026-05-07 10:41 50.04078 8.55260 373 ft 12 kts 248°
2026-05-07 10:41 50.04045 8.55128 370 ft 14 kts 249°
2026-05-07 10:41 50.04009 8.54977 375 ft 16 kts 250°
2026-05-07 10:41 50.03970 8.54814 373 ft 17 kts 250°
2026-05-07 10:42 50.03928 8.54635 370 ft 18 kts 249°
2026-05-07 10:42 50.03883 8.54448 372 ft 17 kts 250°
2026-05-07 10:42 50.03825 8.54295 373 ft 16 kts 238°
2026-05-07 10:42 50.03774 8.54132 372 ft 17 kts 252°
2026-05-07 10:43 50.03735 8.53954 375 ft 18 kts 249°
2026-05-07 10:43 50.03694 8.53777 372 ft 13 kts 250°
2026-05-07 10:43 50.03659 8.53632 371 ft 15 kts 249°
2026-05-07 10:43 50.03618 8.53477 372 ft 16 kts 249°
2026-05-07 10:44 50.03578 8.53305 374 ft 18 kts 249°
2026-05-07 10:44 50.03534 8.53121 374 ft 19 kts 250°
2026-05-07 10:44 50.03489 8.52932 371 ft 18 kts 250°
2026-05-07 10:44 50.03445 8.52770 372 ft 4 kts 245°
2026-05-07 10:45 50.03444 8.52769 372 ft 0 kts 245°
2026-05-07 10:45 50.03438 8.52749 373 ft 6 kts 245°
2026-05-07 10:45 50.03415 8.52662 374 ft 9 kts 247°
2026-05-07 10:46 50.03409 8.52642 372 ft 4 kts 244°
2026-05-07 10:46 50.03369 8.52600 374 ft 8 kts 192°
2026-05-07 10:46 50.03300 8.52593 375 ft 14 kts 183°
2026-05-07 10:46 50.03088 8.52591 371 ft 60 kts 180°
2026-05-07 10:47 50.02446 8.52599 372 ft 122 kts 180°
2026-05-07 10:47 50.01413 8.52610 406 ft 170 kts 182°
2026-05-07 10:47 50.00184 8.52632 941 ft 182 kts 180°
2026-05-07 10:47 49.98884 8.52706 1758 ft 191 kts 180°
2026-05-07 10:48 49.97561 8.52845 2418 ft 191 kts 178°
2026-05-07 10:48 49.96213 8.53047 2983 ft 197 kts 176°
2026-05-07 10:48 49.94843 8.53317 3576 ft 201 kts 174°
2026-05-07 10:48 49.93442 8.53671 4214 ft 205 kts 172°
2026-05-07 10:49 49.92029 8.54099 4872 ft 208 kts 171°
2026-05-07 10:49 49.90633 8.54596 5506 ft 211 kts 169°
2026-05-07 10:49 49.89215 8.55339 5942 ft 226 kts 151°
2026-05-07 10:49 49.88202 8.57268 6347 ft 242 kts 111°
2026-05-07 10:50 49.88117 8.59917 6688 ft 259 kts 75°
2026-05-07 10:50 49.89065 8.62348 6978 ft 273 kts 40°
2026-05-07 10:50 49.90761 8.63651 7496 ft 275 kts 11°
2026-05-07 10:50 49.92647 8.64282 8067 ft 281 kts 12°
2026-05-07 10:51 49.94536 8.65218 8686 ft 287 kts 18°
2026-05-07 10:51 49.96246 8.66848 9253 ft 294 kts 46°
2026-05-07 10:51 49.97216 8.69570 9877 ft 297 kts 78°
2026-05-07 10:51 49.97201 8.72755 10329 ft 301 kts 108°
2026-05-07 10:52 49.96170 8.75585 10606 ft 308 kts 137°
2026-05-07 10:52 49.94335 8.77321 10887 ft 314 kts 166°
2026-05-07 10:52 49.92152 8.77548 11195 ft 321 kts 189°
2026-05-07 10:52 49.89915 8.76934 11492 ft 332 kts 191°
2026-05-07 10:53 49.89134 8.76779 11584 ft 337 kts 187°
2026-05-07 10:53 49.86664 8.77168 11890 ft 351 kts 166°
2026-05-07 10:53 49.84431 8.78814 12285 ft 363 kts 144°
2026-05-07 10:53 49.82750 8.81766 12739 ft 373 kts 122°
2026-05-07 10:54 49.81880 8.85579 13205 ft 382 kts 101°
2026-05-07 10:54 49.81514 8.89613 13657 ft 384 kts 102°
2026-05-07 10:54 49.80871 8.93615 13907 ft 385 kts 111°
2026-05-07 10:54 49.79907 8.97484 14350 ft 386 kts 116°
2026-05-07 10:55 49.78781 9.01264 14805 ft 387 kts 118°
2026-05-07 10:55 49.77561 9.04988 15253 ft 389 kts 120°
2026-05-07 10:55 49.76345 9.08751 15715 ft 393 kts 115°
2026-05-07 10:55 49.75535 9.12800 16177 ft 397 kts 105°
2026-05-07 10:56 49.74841 9.16866 16604 ft 398 kts 111°
2026-05-07 10:56 49.73567 9.20701 17067 ft 396 kts 127°
2026-05-07 10:56 49.71931 9.24054 17514 ft 397 kts 131°
2026-05-07 10:56 49.70126 9.27303 17943 ft 399 kts 134°
2026-05-07 10:57 49.68257 9.30486 18373 ft 401 kts 134°
2026-05-07 10:57 49.66367 9.33669 18725 ft 404 kts 134°
2026-05-07 10:57 49.64468 9.36892 19082 ft 407 kts 134°
2026-05-07 10:57 49.62517 9.40040 19425 ft 408 kts 140°
2026-05-07 10:58 49.60305 9.42705 19784 ft 408 kts 147°
2026-05-07 10:58 49.57943 9.45103 20137 ft 409 kts 150°
2026-05-07 10:58 49.55504 9.47401 20477 ft 412 kts 151°
2026-05-07 10:58 49.53033 9.49639 20829 ft 414 kts 152°
2026-05-07 10:59 49.51934 9.50624 21005 ft 414 kts 152°
2026-05-07 10:59 49.51194 9.51285 21105 ft 415 kts 152°
2026-05-07 10:59 49.48693 9.53519 21473 ft 417 kts 152°
2026-05-07 10:59 49.46169 9.55783 21832 ft 419 kts 152°
2026-05-07 11:00 49.43653 9.58051 22185 ft 421 kts 152°
2026-05-07 11:00 49.41128 9.60337 22531 ft 423 kts 152°
2026-05-07 11:00 49.38625 9.62607 22875 ft 424 kts 152°
2026-05-07 11:00 49.36086 9.64926 23234 ft 427 kts 151°
2026-05-07 11:01 49.33665 9.67608 23547 ft 431 kts 142°
2026-05-07 11:01 49.31434 9.70692 23841 ft 434 kts 140°
2026-05-07 11:01 49.29260 9.73910 24173 ft 435 kts 139°
2026-05-07 11:01 49.28848 9.74533 24236 ft 435 kts 138°
2026-05-07 11:02 49.26711 9.77810 24572 ft 436 kts 138°
2026-05-07 11:02 49.24571 9.81119 24901 ft 437 kts 138°
2026-05-07 11:02 49.22461 9.84377 25217 ft 437 kts 139°
2026-05-07 11:02 49.20311 9.87678 25546 ft 438 kts 139°
2026-05-07 11:03 49.18159 9.90962 25837 ft 439 kts 139°
2026-05-07 11:03 49.15991 9.94255 26223 ft 439 kts 140°
2026-05-07 11:03 49.13833 9.97525 26547 ft 440 kts 140°
2026-05-07 11:03 49.11654 10.00817 26894 ft 441 kts 140°
2026-05-07 11:04 49.09464 10.04121 27227 ft 443 kts 140°
2026-05-07 11:04 49.07267 10.07432 27566 ft 444 kts 140°
2026-05-07 11:04 49.05063 10.10746 27913 ft 445 kts 141°
2026-05-07 11:04 49.02822 10.14000 28276 ft 446 kts 142°
2026-05-07 11:05 49.00539 10.17206 28613 ft 448 kts 143°
2026-05-07 11:05 48.98260 10.20372 28956 ft 450 kts 143°
2026-05-07 11:05 48.95941 10.23591 29355 ft 452 kts 143°
2026-05-07 11:05 48.93624 10.26828 29772 ft 455 kts 143°
2026-05-07 11:06 48.91289 10.30106 30096 ft 458 kts 143°
2026-05-07 11:06 48.88947 10.33399 30337 ft 461 kts 143°
2026-05-07 11:06 48.86581 10.36728 30585 ft 464 kts 143°
2026-05-07 11:06 48.84211 10.40061 30827 ft 467 kts 143°
2026-05-07 11:07 48.81819 10.43432 31031 ft 471 kts 142°
2026-05-07 11:07 48.79487 10.46960 31251 ft 476 kts 140°
2026-05-07 11:07 48.77209 10.50648 31493 ft 479 kts 139°
2026-05-07 11:07 48.74957 10.54378 31698 ft 482 kts 138°
2026-05-07 11:08 48.72718 10.58076 31964 ft 483 kts 139°
2026-05-07 11:08 48.70451 10.61795 32293 ft 483 kts 139°
2026-05-07 11:08 48.68141 10.65529 32589 ft 483 kts 139°
2026-05-07 11:08 48.65837 10.69211 32883 ft 484 kts 140°
2026-05-07 11:09 48.63516 10.72904 33195 ft 484 kts 140°
2026-05-07 11:09 48.61190 10.76591 33510 ft 483 kts 140°
2026-05-07 11:09 48.58871 10.80253 33836 ft 483 kts 140°
2026-05-07 11:09 48.56559 10.83922 34154 ft 483 kts 140°
2026-05-07 11:10 48.54243 10.87620 34423 ft 483 kts 139°
2026-05-07 11:10 48.51950 10.91286 34685 ft 483 kts 139°
2026-05-07 11:10 48.49636 10.94987 34956 ft 483 kts 139°
2026-05-07 11:10 48.47368 10.98605 35226 ft 482 kts 139°
2026-05-07 11:11 48.45042 11.02259 35506 ft 482 kts 140°
2026-05-07 11:11 48.42713 11.05877 35782 ft 481 kts 140°
2026-05-07 11:11 48.40380 11.09487 36076 ft 481 kts 140°
2026-05-07 11:11 48.38054 11.13085 36328 ft 481 kts 140°
2026-05-07 11:12 48.35715 11.16702 36589 ft 481 kts 139°
2026-05-07 11:12 48.33410 11.20268 36854 ft 481 kts 139°
2026-05-07 11:12 48.31073 11.23883 36996 ft 482 kts 139°
2026-05-07 11:12 48.28761 11.27458 37018 ft 484 kts 140°
2026-05-07 11:13 48.24678 11.35497 37028 ft 492 kts 126°
2026-05-07 11:13 48.22887 11.39989 37150 ft 494 kts 125°
2026-05-07 11:13 48.21179 11.44409 37406 ft 494 kts 125°
2026-05-07 11:14 48.19471 11.48878 37688 ft 493 kts 124°
2026-05-07 11:14 48.17764 11.53339 37950 ft 493 kts 124°
2026-05-07 11:14 48.16031 11.57843 38208 ft 492 kts 124°
2026-05-07 11:14 48.14347 11.62198 38456 ft 491 kts 124°
2026-05-07 11:15 48.12626 11.66627 38685 ft 491 kts 124°
2026-05-07 11:15 48.10905 11.71042 38850 ft 491 kts 124°
2026-05-07 11:15 48.09184 11.75444 38981 ft 492 kts 124°
2026-05-07 11:15 48.07452 11.79863 39011 ft 494 kts 124°
2026-05-07 11:16 48.03976 11.88721 39004 ft 493 kts 124°
2026-05-07 11:16 48.00507 11.97538 38998 ft 492 kts 125°
2026-05-07 11:17 47.97026 12.06353 39001 ft 493 kts 125°
2026-05-07 11:17 47.93325 12.14799 38998 ft 486 kts 135°
2026-05-07 11:18 47.88503 12.21727 38996 ft 479 kts 144°
2026-05-07 11:18 47.83406 12.28121 39003 ft 479 kts 145°
2026-05-07 11:19 47.78319 12.34397 39007 ft 479 kts 145°
2026-05-07 11:19 47.73203 12.40737 39007 ft 479 kts 145°
2026-05-07 11:20 47.68083 12.47095 39000 ft 480 kts 145°
2026-05-07 11:20 47.62959 12.53448 38998 ft 480 kts 145°
2026-05-07 11:21 47.57917 12.59968 38999 ft 483 kts 142°
2026-05-07 11:21 47.53010 12.66716 39020 ft 487 kts 141°
2026-05-07 11:22 47.48048 12.73495 38994 ft 493 kts 141°
2026-05-07 11:22 47.42983 12.80331 38989 ft 493 kts 142°
2026-05-07 11:23 47.37891 12.87146 38978 ft 493 kts 142°
2026-05-07 11:23 47.32819 12.93909 38984 ft 492 kts 142°
2026-05-07 11:24 47.27717 13.00694 38979 ft 493 kts 142°
2026-05-07 11:24 47.22618 13.07463 38976 ft 493 kts 142°
2026-05-07 11:25 47.17513 13.14221 38963 ft 494 kts 142°
2026-05-07 11:25 47.12406 13.20963 38959 ft 492 kts 142°
2026-05-07 11:26 47.07362 13.27608 38959 ft 491 kts 142°
2026-05-07 11:26 47.02265 13.34302 38952 ft 491 kts 142°
2026-05-07 11:27 46.97179 13.40961 38947 ft 491 kts 143°
2026-05-07 11:27 46.92082 13.47617 38955 ft 491 kts 143°
2026-05-07 11:28 46.86982 13.54264 38952 ft 491 kts 143°
2026-05-07 11:28 46.81872 13.60900 38943 ft 492 kts 143°
2026-05-07 11:29 46.76788 13.67486 38947 ft 492 kts 143°
2026-05-07 11:29 46.71669 13.74102 38948 ft 492 kts 143°
2026-05-07 11:30 46.66537 13.80719 38961 ft 493 kts 143°
2026-05-07 11:30 46.61413 13.87306 38961 ft 493 kts 143°
2026-05-07 11:31 46.56256 13.93915 38962 ft 493 kts 143°
2026-05-07 11:31 46.51138 14.00459 38961 ft 493 kts 143°
2026-05-07 11:32 46.43480 14.10455 38965 ft 494 kts 142°
2026-05-07 11:33 46.38457 14.17267 38978 ft 495 kts 142°
2026-05-07 11:33 46.33420 14.24052 38983 ft 495 kts 142°
2026-05-07 11:34 46.28363 14.30804 38987 ft 494 kts 142°
2026-05-07 11:34 46.23337 14.37482 38992 ft 494 kts 142°
2026-05-07 11:35 46.18281 14.44182 38992 ft 494 kts 142°
2026-05-07 11:35 46.13220 14.50872 38992 ft 494 kts 142°
2026-05-07 11:36 46.08155 14.57552 38987 ft 493 kts 142°
2026-05-07 11:36 46.03087 14.64217 38986 ft 493 kts 142°
2026-05-07 11:37 45.98055 14.70817 38986 ft 493 kts 143°
2026-05-07 11:37 45.92983 14.77454 38989 ft 493 kts 143°
2026-05-07 11:38 45.87901 14.84084 38988 ft 493 kts 143°
2026-05-07 11:38 45.82827 14.90689 38994 ft 493 kts 143°
2026-05-07 11:39 45.77745 14.97292 38998 ft 493 kts 143°
2026-05-07 11:39 45.72696 15.03829 38999 ft 493 kts 143°
2026-05-07 11:40 45.67599 15.10412 39002 ft 494 kts 143°
2026-05-07 11:40 45.62504 15.16979 39004 ft 493 kts 143°
2026-05-07 11:41 45.57398 15.23539 39003 ft 493 kts 143°
2026-05-07 11:41 45.52327 15.30040 39005 ft 493 kts 143°
2026-05-07 11:42 45.47220 15.36571 39009 ft 493 kts 143°
2026-05-07 11:42 45.42102 15.43098 39008 ft 494 kts 143°
2026-05-07 11:43 45.36983 15.49612 39008 ft 494 kts 143°
2026-05-07 11:43 45.31853 15.56122 39017 ft 495 kts 143°
2026-05-07 11:44 45.26748 15.62585 39005 ft 495 kts 143°
2026-05-07 11:44 45.21602 15.69081 39008 ft 495 kts 143°
2026-05-07 11:45 45.16444 15.75577 39003 ft 495 kts 144°
2026-05-07 11:45 45.11290 15.82049 39012 ft 495 kts 144°
2026-05-07 11:46 45.06132 15.88512 39016 ft 495 kts 144°
2026-05-07 11:46 45.00999 15.94927 39021 ft 495 kts 144°
2026-05-07 11:47 44.95833 16.01369 39024 ft 495 kts 144°
2026-05-07 11:47 44.90670 16.07790 39024 ft 495 kts 144°
2026-05-07 11:48 44.85496 16.14209 39027 ft 495 kts 144°
2026-05-07 11:48 44.80328 16.20605 39030 ft 494 kts 144°
2026-05-07 11:49 44.75191 16.26946 39032 ft 494 kts 144°
2026-05-07 11:49 44.70033 16.33298 39035 ft 493 kts 144°
2026-05-07 11:50 44.64856 16.39657 39035 ft 493 kts 144°
2026-05-07 11:50 44.59687 16.45991 39043 ft 493 kts 144°
2026-05-07 11:51 44.54548 16.52273 39037 ft 493 kts 144°
2026-05-07 11:51 44.49378 16.58577 39041 ft 493 kts 144°
2026-05-07 11:52 44.44205 16.64868 39036 ft 493 kts 144°
2026-05-07 11:52 44.39025 16.71154 39038 ft 493 kts 144°
2026-05-07 11:53 44.33845 16.77426 39041 ft 493 kts 144°
2026-05-07 11:53 44.28652 16.83692 39041 ft 493 kts 144°
2026-05-07 11:54 44.23416 16.89774 39048 ft 492 kts 146°
2026-05-07 11:54 44.18111 16.95824 39056 ft 493 kts 146°
2026-05-07 11:55 44.12821 17.01875 39065 ft 493 kts 145°
2026-05-07 11:55 44.07521 17.07954 39074 ft 493 kts 145°
2026-05-07 11:56 44.02225 17.14022 39075 ft 494 kts 145°
2026-05-07 11:56 43.96956 17.20043 39081 ft 494 kts 145°
2026-05-07 11:57 43.91647 17.26095 39085 ft 494 kts 145°
2026-05-07 11:57 43.86342 17.32128 39089 ft 494 kts 145°
2026-05-07 11:58 43.81024 17.38160 39099 ft 494 kts 145°
2026-05-07 11:58 43.75709 17.44177 39096 ft 494 kts 145°
2026-05-07 11:59 43.70430 17.50137 39100 ft 493 kts 145°
2026-05-07 11:59 43.65108 17.56131 39110 ft 493 kts 145°
2026-05-07 12:00 43.59786 17.62113 39104 ft 493 kts 146°
2026-05-07 12:00 43.55055 17.68921 39107 ft 503 kts 129°
2026-05-07 12:01 43.51337 17.77126 39105 ft 506 kts 124°
2026-05-07 12:01 43.47814 17.85526 39106 ft 506 kts 123°
2026-05-07 12:02 43.44302 17.93903 39107 ft 505 kts 124°
2026-05-07 12:02 43.40761 18.02247 39116 ft 504 kts 124°
2026-05-07 12:03 43.37209 18.10546 39109 ft 504 kts 124°
2026-05-07 12:03 43.33674 18.18774 39089 ft 503 kts 124°
2026-05-07 12:04 43.30110 18.27050 39093 ft 503 kts 124°
2026-05-07 12:04 43.26543 18.35311 39103 ft 502 kts 124°
2026-05-07 12:05 43.22980 18.43541 39101 ft 502 kts 124°
2026-05-07 12:05 43.19431 18.51718 39105 ft 502 kts 124°
2026-05-07 12:06 43.15854 18.59934 39108 ft 502 kts 124°
2026-05-07 12:06 43.12269 18.68145 39111 ft 502 kts 124°
2026-05-07 12:07 43.08684 18.76333 39112 ft 502 kts 124°
2026-05-07 12:07 43.05090 18.84519 39111 ft 501 kts 124°
2026-05-07 12:08 43.01522 18.92622 39118 ft 502 kts 124°
2026-05-07 12:08 42.97918 19.00786 39105 ft 501 kts 125°
2026-05-07 12:09 42.94313 19.08922 39117 ft 501 kts 125°
2026-05-07 12:09 42.90701 19.17061 39113 ft 501 kts 125°
2026-05-07 12:10 42.87085 19.25192 39103 ft 501 kts 125°
2026-05-07 12:10 42.83490 19.33237 39103 ft 501 kts 125°
2026-05-07 12:11 42.79833 19.41402 39111 ft 503 kts 125°
2026-05-07 12:11 42.76210 19.49477 39108 ft 503 kts 125°
2026-05-07 12:12 42.72581 19.57547 39092 ft 503 kts 125°
2026-05-07 12:12 42.68917 19.65664 39099 ft 504 kts 125°
2026-05-07 12:13 42.65247 19.73775 39106 ft 505 kts 125°
2026-05-07 12:13 42.61570 19.81879 39107 ft 505 kts 125°
2026-05-07 12:14 42.57898 19.89950 39105 ft 505 kts 125°
2026-05-07 12:14 42.54218 19.98009 39115 ft 506 kts 125°
2026-05-07 12:15 42.50507 20.06119 39112 ft 506 kts 125°
2026-05-07 12:15 42.46801 20.14202 39104 ft 505 kts 125°
2026-05-07 12:16 42.43082 20.22288 39108 ft 506 kts 125°
2026-05-07 12:16 42.39359 20.30359 39111 ft 505 kts 125°
2026-05-07 12:17 42.35655 20.38367 39109 ft 505 kts 125°
2026-05-07 12:17 42.31920 20.46420 39111 ft 505 kts 125°
2026-05-07 12:18 42.28182 20.54459 39109 ft 505 kts 125°
2026-05-07 12:18 42.24436 20.62492 39109 ft 506 kts 125°
2026-05-07 12:19 42.20708 20.70467 39126 ft 506 kts 125°
2026-05-07 12:19 42.16947 20.78490 39124 ft 506 kts 125°
2026-05-07 12:20 42.13180 20.86506 39122 ft 507 kts 125°
2026-05-07 12:20 42.09428 20.94465 39125 ft 506 kts 125°
2026-05-07 12:21 42.05656 21.02449 39128 ft 506 kts 126°
2026-05-07 12:21 42.01871 21.10438 39127 ft 506 kts 126°
2026-05-07 12:22 41.98084 21.18411 39128 ft 506 kts 126°
2026-05-07 12:22 41.94927 21.25039 39125 ft 506 kts 126°
2026-05-07 12:23 41.91131 21.32990 39129 ft 506 kts 126°
2026-05-07 12:23 41.86713 21.42222 39124 ft 506 kts 126°
2026-05-07 12:24 41.82902 21.50161 39129 ft 506 kts 126°
2026-05-07 12:24 41.79097 21.58067 39129 ft 506 kts 126°
2026-05-07 12:25 41.75270 21.65996 39126 ft 506 kts 126°
2026-05-07 12:25 41.71469 21.73853 39126 ft 506 kts 126°
2026-05-07 12:26 41.67648 21.81730 39125 ft 505 kts 126°
2026-05-07 12:26 41.64435 21.88335 39128 ft 505 kts 126°
2026-05-07 12:27 41.60633 21.96137 39128 ft 506 kts 126°
2026-05-07 12:27 41.56776 22.04031 39127 ft 507 kts 126°
2026-05-07 12:28 41.52916 22.11908 39131 ft 507 kts 126°
2026-05-07 12:28 41.49081 22.19716 39140 ft 508 kts 126°
2026-05-07 12:29 41.45190 22.27618 39137 ft 508 kts 126°
2026-05-07 12:29 41.41304 22.35487 39142 ft 508 kts 126°
2026-05-07 12:30 41.37412 22.43349 39138 ft 508 kts 126°
2026-05-07 12:30 41.33519 22.51196 39141 ft 508 kts 126°
2026-05-07 12:31 41.29563 22.58789 39143 ft 507 kts 130°
2026-05-07 12:31 41.25181 22.66225 39142 ft 507 kts 131°
2026-05-07 12:32 41.20756 22.73504 39145 ft 507 kts 131°
2026-05-07 12:32 41.16317 22.80794 39144 ft 507 kts 131°
2026-05-07 12:33 41.09676 22.91727 39151 ft 508 kts 131°
2026-05-07 12:33 41.05244 22.99012 39146 ft 508 kts 131°
2026-05-07 12:34 41.00828 23.06253 39146 ft 509 kts 131°
2026-05-07 12:34 40.96375 23.13536 39143 ft 509 kts 131°
2026-05-07 12:35 40.91910 23.20822 39146 ft 510 kts 132°
2026-05-07 12:35 40.87145 23.28578 39145 ft 511 kts 132°
2026-05-07 12:36 40.82950 23.35390 39143 ft 511 kts 132°
2026-05-07 12:36 40.78486 23.42623 39140 ft 512 kts 132°
2026-05-07 12:37 40.73947 23.49957 39140 ft 513 kts 132°
2026-05-07 12:37 40.69490 23.57143 39136 ft 514 kts 132°
2026-05-07 12:38 40.64955 23.64439 39137 ft 515 kts 132°
2026-05-07 12:38 40.60412 23.71729 39142 ft 515 kts 132°
2026-05-07 12:39 40.55862 23.79013 39137 ft 515 kts 132°
2026-05-07 12:39 40.51321 23.86266 39134 ft 515 kts 132°
2026-05-07 12:40 40.46761 23.93531 39137 ft 515 kts 132°
2026-05-07 12:40 40.42222 24.00746 39136 ft 515 kts 132°
2026-05-07 12:41 40.37655 24.07990 39135 ft 515 kts 132°
2026-05-07 12:41 40.33082 24.15226 39135 ft 516 kts 132°
2026-05-07 12:42 40.28499 24.22461 39135 ft 516 kts 132°
2026-05-07 12:42 40.23906 24.29693 39134 ft 516 kts 132°
2026-05-07 12:43 40.19307 24.36917 39131 ft 517 kts 132°
2026-05-07 12:43 40.14708 24.44128 39130 ft 516 kts 132°
2026-05-07 12:44 40.10129 24.51290 39127 ft 516 kts 132°
2026-05-07 12:44 40.05524 24.58476 39128 ft 516 kts 132°
2026-05-07 12:45 40.00910 24.65658 39129 ft 516 kts 132°
2026-05-07 12:45 39.96293 24.72829 39129 ft 516 kts 132°
2026-05-07 12:46 39.91667 24.79998 39129 ft 516 kts 132°
2026-05-07 12:46 39.87037 24.87154 39129 ft 516 kts 132°
2026-05-07 12:47 39.82409 24.94293 39127 ft 516 kts 132°
2026-05-07 12:47 39.77783 25.01412 39127 ft 516 kts 132°
2026-05-07 12:48 39.73180 25.08479 39127 ft 515 kts 132°
2026-05-07 12:48 39.68544 25.15582 39137 ft 515 kts 132°
2026-05-07 12:49 39.63911 25.22663 39122 ft 515 kts 132°
2026-05-07 12:49 39.59270 25.29740 39121 ft 515 kts 132°
2026-05-07 12:50 39.54622 25.36812 39121 ft 515 kts 132°
2026-05-07 12:50 39.49998 25.43832 39130 ft 515 kts 132°
2026-05-07 12:51 39.45341 25.50885 39125 ft 515 kts 132°
2026-05-07 12:51 39.40682 25.57926 39133 ft 515 kts 132°
2026-05-07 12:52 39.36019 25.64958 39128 ft 515 kts 132°
2026-05-07 12:52 39.31357 25.71972 39130 ft 515 kts 132°
2026-05-07 12:53 39.26679 25.78994 39129 ft 515 kts 132°
2026-05-07 12:53 39.22003 25.85998 39131 ft 515 kts 132°
2026-05-07 12:54 39.17352 25.92949 39126 ft 516 kts 132°
2026-05-07 12:54 39.12660 25.99946 39129 ft 516 kts 132°
2026-05-07 12:55 39.07961 26.06937 39132 ft 516 kts 132°
2026-05-07 12:55 39.03253 26.13925 39135 ft 516 kts 132°
2026-05-07 12:56 38.98552 26.20888 39136 ft 516 kts 132°
2026-05-07 12:56 38.93831 26.27867 39138 ft 517 kts 132°
2026-05-07 12:57 38.89114 26.34823 39142 ft 517 kts 132°
2026-05-07 12:57 38.84334 26.41611 39140 ft 516 kts 139°
2026-05-07 12:58 38.78573 26.47016 39133 ft 512 kts 150°